OBJECT B, 59774

Orbit data source: Space-Track

You're viewing an Uncataloged Satellite

Recently launched and/or uncataloged satellites may have evolving metadata. Metadata may include but not limited to: Owner, Maufacturer, Bus, Motor, and Mission.

OBJECT B, 59774 is a satellite owned by Sputniks (CIS) in SSO that was launched on Thu, 16 May 2024 UTC via a SOYUZ-2-1B launch vehicle from the Plesetsk Missile And Space Complex (PKMTR). Unknown objects in Earth's orbit typically refer to objects detected orbiting the Earth but have not yet been identified or cataloged. These objects could be anything from previously untracked satellites, spent rocket stages, debris from satellite collisions, or even natural meteoroids temporarily captured by Earth's gravity.

Loading next visibility...
Identifier
59774, 2024-092B
Orbit
SSO
Last TLE update
4 hours ago
Origin
Manufacturer
Sputniks
Mission
Operational spacecraft
Bus & Motor
CUBESAT 12U, Unknown motor
Mass
20 kg wet, 20 kg dry
Launch date (UTC)
2024-05-16 (1 year ago)
Launch vehicle
SOYUZ-2-1B
Launch site
Plesetsk Missile And Space Complex (PKMTR)
Object type
Unknown
Shape & HBR
Unknown
Radar Cross Section
Medium (>0.1 m² and <1 m²)

Expand to show TLE details & history

TLE from 4 hours ago
0 OBJECT B
1 59774U 24092B   25199.83114936  .00006464  00000-0  29936-3 0  9992
2 59774  97.6170 317.7300 0009189 266.3630  93.6554 15.20426404 64749
Epoch: 2025-07-18T19:56Z
TLE epoch observation values (Epoch: 2025-07-18T19:56:51.304Z)
Latitude
-0.00003°
Longitude
81.63927°
Altitude
508.047 km
Speed
7.61 km/s
True Right ascension
21h 10m 55s
True Declination
0° 00' 00"
Sunlit
Object was in full shadow at epoch
Visualization orbit readout
Latitude
58.64027°
Longitude
-85.60064°
Altitude
519.687 km
Speed
7.606 km/s
Apparent Right ascension
03h 32m 51s
Apparent Declination
31° 46' 20"
Sunlit
Object is in daylight
Visualization observer readout
Local Sidereal Time
12:25:48
Azimuth
321.46° NNW
Elevation
-6.246°
Doppler factor
1
Orbital elements
Apogee altitude
507.85 km
Perigee altitude
495.206 km
Semi-major axis
6,879.665 km
Eccentricity
0.00092
Inclination
97.617°
RAAN
317.73°
Arg. of periapsis
266.363°
True anomaly
93.76048°
Mean anomaly
93.6554°
Eccentric anomaly
93.70794°
Mean motion
3.80358 °/min
Orbital period
94.65 mins
BSTAR
0.00029936
Loading maneuver chart data...
Loading SW <> Apogee altitude chart data...
Loading historical data...
Loading historical data...
Loading historical data...
Loading historical data...
Loading historical data...
Loading historical data...
Loading historical data...
|